Regional Weather Roundup
Issued by NWS

Home | Current Version | Previous Version | Text Only | Print | Product List | Glossary Off
Versions: 1 2 3 4 5 6 7 8 9 10 11 12 13 14 15 16 17 18 19 20 21 22 23 24 25 26 27 28 29 30 31 32 33 34 35 36 37 38 39 40 41 42 43 44 45 46 47 48 49 50

091
ASUS43 KOAX 131910
RWRNE

WEATHER ROUNDUP FOR NEBRASKA
NATIONAL WEATHER SERVICE OMAHA NE
100 PM CST SAT FEB 13 2016

NOTES: SATELLITE DATA IS BEING USED TO AUGMENT CLOUD COVER ABOVE
       12000 FEET.
       "FAIR" INDICATES FEW OR NO CLOUDS BELOW 12,000 FEET WITH NO
       SIGNIFICANT WEATHER AND/OR OBSTRUCTIONS TO VISIBILITY.

  * THESE STATIONS DO NOT REPORT WEATHER SUCH AS RAIN...SNOW OR FOG.

NEZ001>004-019>022-054>056-132000-
NEBRASKA PANHANDLE

CITY           SKY/WX    TMP DP  RH WIND       PRES   REMARKS
SCOTTSBLUFF    CLOUDY    42  32  67 S8        29.96F
ALLIANCE       CLOUDY    35  31  85 S18       29.95F WCI  24
CHADRON        CLOUDY    49  32  52 S14       29.89F
KIMBALL        CLOUDY    51  39  63 CALM      29.97F
SIDNEY         CLOUDY    35  33  92 SW10      30.00F WCI  27
$$

NEZ057>060-069>072-079>082-132000-
SOUTHWEST NEBRASKA

CITY           SKY/WX    TMP DP  RH WIND       PRES   REMARKS
NORTH PLATTE   CLOUDY    22  18  85 S16       30.16F WCI   8
IMPERIAL       CLOUDY    27  25  92 S13       30.09F WCI  16
LEXINGTON      CLOUDY    23  17  78 S17       30.22F WCI   9
MCCOOK         CLOUDY    24  19  81 S16       30.19F HAZE    WCI  11
OGALLALA       CLOUDY    29  27  93 S12       30.08F FOG     WCI  19
$$

NEZ005>010-023>029-035>040-094-132000-
NORTH CENTRAL NEBRASKA

CITY           SKY/WX    TMP DP  RH WIND       PRES   REMARKS
VALENTINE      CLOUDY    27  23  85 S23G30    30.05F WCI  12
AINSWORTH      CLOUDY    24  19  80 S23G31    30.10F WCI   9
BROKEN BOW     CLOUDY    21  15  78 S17G26    30.20F WCI   7
O`NEILL        CLOUDY    21   9  60 S21       30.23F WCI   5
ORD            CLOUDY    20   9  62 S20       30.26F WCI   4
THEDFORD       CLOUDY    25  23  92 S20       30.13F WCI  11
$$

NEZ041-046>049-061>064-073>077-083>087-132000-
SOUTH CENTRAL NEBRASKA

CITY           SKY/WX    TMP DP  RH WIND       PRES   REMARKS
GRAND ISLAND   CLOUDY    20   9  62 S17       30.32F WCI   5
AURORA         CLOUDY    20   8  57 SE16      30.33F WCI   6
HASTINGS       CLOUDY    21   7  54 S13       30.30F WCI   9
HEBRON         CLOUDY    23   4  45 SE13      30.38F WCI  11
HOLDREGE       CLOUDY    22  12  67 S16       30.24F WCI   8
KEARNEY *      CLOUDY    21  10  63 SE16      30.27F WCI   7
YORK           CLOUDY    19   7  58 SE15      30.36F WCI   5
$$

NEZ011>018-030>034-042>045-132000-
NORTHEAST NEBRASKA

CITY           SKY/WX    TMP DP  RH WIND       PRES   REMARKS
NORFOLK        CLOUDY    16   7  67 S18       30.34F WCI   0
ALBION         CLOUDY    19   9  65 S17       30.34F WCI   3
BLAIR          CLOUDY    16   6  66 SE12      30.44F WCI   2
COLUMBUS *     CLOUDY    18   0  45 SE13      30.38F WCI   4
FREMONT        CLOUDY    16   4  61 E13       30.44F WCI   2
TEKAMAH        CLOUDY    13   5  70 SE14      30.48F WCI  -2
WAYNE          CLOUDY    13   6  71 SE18      30.38F WCI  -4
$$

NEZ050>053-065>068-078-088>093-132000-
SOUTHEAST NEBRASKA

CITY           SKY/WX    TMP DP  RH WIND       PRES   REMARKS
LINCOLN        CLOUDY    19   6  57 SE10      30.45F WCI   7
OMAHA EPPLEY   CLOUDY    16   4  59 SE14      30.49F WCI   2
BEATRICE       CLOUDY    21   4  48 SE13      30.43F WCI   9
FALLS CITY     CLOUDY    19   2  47 E12       30.49F WCI   7
NEBRASKA CITY  CLOUDY    18   2  51 SE10      30.47F WCI   6
PLATTSMOUTH    CLOUDY    17   3  55 SE10      30.47F WCI   5
$$

NEZ044-045-051>053-067-132000-
OMAHA AREA

CITY           SKY/WX    TMP DP  RH WIND       PRES   REMARKS
OMAHA EPPLEY   CLOUDY    16   4  59 SE14      30.49F WCI   2
BLAIR          CLOUDY    16   6  66 SE12      30.44F WCI   2
FREMONT        CLOUDY    16   4  61 E13       30.44F WCI   2
MILLARD        CLOUDY    17   4  57 SE10      30.47F WCI   4
OFFUTT AFB     CLOUDY    17   4  56 E9        30.47F WCI   5
PLATTSMOUTH    CLOUDY    17   3  55 SE10      30.47F WCI   5
WAHOO          CLOUDY    17   7  65 SE13      30.44F WCI   3
$$




USA.gov is the U.S. government's official web portal to all federal, state and local government web resources and services.